Location: Moscow
(55.7500°N, 37.5830°E)
Time: 16:57:00
(UTC+03:00)

Vanguard 2 Rocket - Pass Details

Date: 06 December 2021
Orbit: 553 x 3325 km, 32.9° (Epoch: 23 January)

Event Time Altitude Azimuth Distance (km) Brightness Sun altitude
Rises 21:00:50 0° 237° (WSW) 3,931 10.5 -40.6°
Reaches altitude 10° 21:04:40 10° 214° (SW) 3,412 9.9 -41.1°
Enters shadow 21:05:52 12° 206° (SSW) 3,362 9.8 -41.3°
